Weather History for Jamestown, ND

Change the Weather History Date:

Wednesday, April 23, 2014

  Actual Average Record
Temperature  
Mean Temperature 46 °F 46 °F  
Max Temperature 52 °F 59 °F 89 °F (1990)
Min Temperature 40 °F 33 °F 13 °F (1902)
Degree Days  
Heating Degree Days 19 19  
Month to date heating degree days 626 558  
Since 1 July heating degree days 9165 8478  
Cooling Degree Days 0 0  
Month to date cooling degree days 0 0  
Year to date cooling degree days 0 0  
Moisture  
Dew Point 40 °F    
Average Humidity 74    
Maximum Humidity 92    
Minimum Humidity 56    
Precipitation  
Precipitation 0.42 in 0.04 in 1.56 in (1976)
Month to date precipitation 0.53 0.80  
Year to date precipitation 1.08 2.49  
Sea Level Pressure  
Sea Level Pressure 29.75 in    
Wind  
Wind Speed 23 mph (SE)    
Max Wind Speed 38 mph    
Max Gust Speed 49 mph    
Visibility 8 miles    
Events Rain    
T = Trace of Precipitation, MM = Missing Value Source: NWS Daily Summary

Daily Weather History Graph

Daily Weather History Graph

Search for Another Location

Airport:

Trip Planner

Search our weather history database for the weather conditions in past years. The results will help you decide how hot, cold, wet, or windy it might be!

Date:

Astronomy

Apr. 23, 2014 Rise Set
Actual Time 6:32 AM CDT 8:34 PM CDT
Civil Twilight 5:59 AM CDT 9:07 PM CDT
Nautical Twilight 5:19 AM CDT 9:47 PM CDT
Astronomical Twilight 4:34 AM CDT 10:32 PM CDT
Moon 3:28 AM CDT (4/23) 2:22 PM CDT (4/23)
Length of Visible Light 15h 07m
Length of Day
14h 01m
Waning Crescent, 34% of the Moon is Illuminated
Apr 23
Waning Crescent
Apr 29
New
May 6
First Quarter
May 14
Full
May 21
Last Quarter

Hourly Weather History & Observations

Time (CDT) Temp. Windchill Dew Point Humidity Pressure Visibility Wind Dir Wind Speed Gust Speed Precip Events Conditions
12:56 AM 48.0 °F - 34.0 °F 58% 29.86 in 10.0 mi ESE 20.7 mph - N/A   Clear
1:56 AM 48.9 °F - 35.1 °F 59% 29.85 in 10.0 mi ESE 21.9 mph - N/A   Clear
2:56 AM 50.0 °F - 35.1 °F 57% 29.84 in 10.0 mi SE 23.0 mph 31.1 mph N/A   Clear
3:56 AM 48.0 °F - 37.9 °F 68% 29.83 in 10.0 mi SE 20.7 mph 32.2 mph 0.00 in Rain Light Rain
4:56 AM 44.1 °F 36.8 °F 42.1 °F 93% 29.83 in 2.5 mi SSE 16.1 mph - 0.13 in Rain Heavy Rain
5:16 AM 44.1 °F 35.7 °F 43.0 °F 96% 29.80 in 7.0 mi SE 20.7 mph 28.8 mph 0.06 in Rain Light Rain
5:56 AM 44.1 °F 35.2 °F 42.1 °F 93% 29.80 in 6.0 mi SE 23.0 mph 29.9 mph 0.07 in Rain Light Rain
6:56 AM 44.1 °F 35.0 °F 43.0 °F 96% 29.78 in 10.0 mi ESE 24.2 mph 29.9 mph 0.01 in   Overcast
7:56 AM 45.0 °F 35.4 °F 42.1 °F 90% 29.76 in 10.0 mi SE 28.8 mph 38.0 mph 0.00 in   Overcast
8:56 AM 45.0 °F 35.8 °F 41.0 °F 86% 29.78 in 10.0 mi SE 26.5 mph 32.2 mph N/A   Overcast
9:56 AM 46.0 °F 36.5 °F 42.1 °F 86% 29.70 in 10.0 mi ESE 31.1 mph 43.7 mph N/A   Partly Cloudy
10:56 AM 46.9 °F - 41.0 °F 80% 29.75 in 10.0 mi SE 25.3 mph 35.7 mph 0.00 in   Mostly Cloudy
12:56 PM 48.9 °F - 43.0 °F 80% 29.72 in 10.0 mi SE 26.5 mph 43.7 mph N/A   Mostly Cloudy
1:56 PM 44.1 °F 34.2 °F 41.0 °F 89% 29.71 in 6.0 mi ESE 28.8 mph 39.1 mph 0.04 in Rain Light Rain
2:56 PM 44.1 °F 34.4 °F 39.9 °F 85% 29.73 in 8.0 mi SE 27.6 mph 36.8 mph 0.03 in Rain Light Rain
3:56 PM 43.0 °F 34.0 °F 39.0 °F 86% 29.72 in 10.0 mi ESE 21.9 mph 38.0 mph 0.00 in   Overcast
4:29 PM 42.1 °F 32.1 °F 39.9 °F 92% 29.69 in 6.0 mi SE 25.3 mph 35.7 mph 0.00 in Rain Light Rain
4:39 PM 42.1 °F 32.3 °F 39.9 °F 92% 29.69 in 5.0 mi ESE 24.2 mph 34.5 mph 0.00 in Rain Light Rain
4:56 PM 42.1 °F 33.3 °F 39.9 °F 92% 29.73 in 4.0 mi SE 19.6 mph 29.9 mph 0.02 in Rain Light Rain
5:27 PM 41.0 °F 31.1 °F 39.9 °F 96% 29.67 in 2.5 mi ESE 23.0 mph - 0.07 in Rain Rain
5:35 PM 41.0 °F 29.7 °F 39.9 °F 96% 29.65 in 3.0 mi SE 31.1 mph 39.1 mph 0.08 in Rain Light Rain
5:38 PM 41.0 °F 30.2 °F 39.9 °F 96% 29.66 in 2.5 mi SE 27.6 mph 39.1 mph 0.09 in Rain Rain
5:48 PM 41.0 °F 31.1 °F 39.9 °F 96% 29.68 in 2.0 mi SE 23.0 mph 38.0 mph 0.12 in Rain Rain
5:56 PM 42.1 °F 32.3 °F 39.9 °F 92% 29.71 in 5.0 mi SE 24.2 mph 29.9 mph 0.12 in Rain Light Rain
6:56 PM 41.0 °F 31.6 °F 39.0 °F 93% 29.72 in 10.0 mi SE 20.7 mph 28.8 mph 0.00 in   Overcast
7:56 PM 41.0 °F 31.6 °F 37.9 °F 89% 29.73 in 10.0 mi SE 20.7 mph 33.4 mph N/A   Overcast
8:56 PM 39.9 °F 30.2 °F 37.9 °F 93% 29.74 in 10.0 mi SE 20.7 mph 27.6 mph N/A   Overcast
9:56 PM 39.9 °F 31.1 °F 37.9 °F 93% 29.77 in 10.0 mi SE 17.3 mph - N/A   Overcast
10:56 PM 39.9 °F 31.4 °F 37.9 °F 93% 29.77 in 10.0 mi SSE 16.1 mph - 0.00 in   Overcast
11:56 PM 39.9 °F 31.1 °F 37.9 °F 93% 29.79 in 10.0 mi SSE 17.3 mph 24.2 mph N/A   Overcast